Time,TemperatureF,DewpointF,PressureIn,WindDirection,WindDirectionDegrees,WindSpeedMPH,WindSpeedGustMPH,Humidity,HourlyPrecipIn,Conditions,Clouds,dailyrainin,SoftwareType,DateUTC
2013-02-27 00:02:00,38.0,35.0,29.60,WNW,284,3.0,20.0,89,0.00,,,0.58,,2013-02-27 06:02:00,
2013-02-27 00:11:00,38.0,35.0,29.60,WNW,284,3.0,20.0,89,0.00,,,0.58,,2013-02-27 06:11:00,
2013-02-27 00:21:00,38.0,35.0,29.61,NNW,335,6.0,20.0,88,0.00,,,0.58,,2013-02-27 06:21:00,
2013-02-27 00:33:00,38.0,34.0,29.62,West,278,9.0,22.0,86,0.58,,,0.58,,2013-02-27 06:33:00,
2013-02-27 00:41:00,38.0,34.0,29.62,West,278,9.0,22.0,86,0.58,,,0.58,,2013-02-27 06:41:00,
2013-02-27 00:51:00,38.0,34.0,29.63,West,272,10.0,22.0,86,0.58,,,0.58,,2013-02-27 06:51:00,
2013-02-27 01:01:00,38.0,34.0,29.64,West,263,6.0,25.0,87,0.00,,,0.00,,2013-02-27 07:01:00,
2013-02-27 01:12:00,38.0,34.0,29.64,West,263,6.0,25.0,87,0.00,,,0.00,,2013-02-27 07:12:00,
2013-02-27 01:21:00,38.0,34.0,29.64,West,274,5.0,25.0,87,0.00,,,0.00,,2013-02-27 07:21:00,
2013-02-27 01:32:00,38.0,34.0,29.65,WNW,282,7.0,17.0,85,0.00,,,0.00,,2013-02-27 07:32:00,
2013-02-27 01:42:00,38.0,34.0,29.65,WNW,282,7.0,17.0,85,0.00,,,0.00,,2013-02-27 07:42:00,
2013-02-27 01:51:00,38.0,33.0,29.65,WNW,291,5.0,17.0,83,0.00,,,0.00,,2013-02-27 07:51:00,
2013-02-27 02:01:00,38.0,33.0,29.66,WSW,254,5.0,18.0,82,0.00,,,0.00,,2013-02-27 08:01:00,
2013-02-27 02:11:00,38.0,33.0,29.66,WSW,254,5.0,18.0,82,0.00,,,0.00,,2013-02-27 08:11:00,
2013-02-27 02:21:00,38.0,33.0,29.66,WSW,254,3.0,18.0,82,0.00,,,0.00,,2013-02-27 08:21:00,
2013-02-27 02:32:00,38.0,34.0,29.66,WSW,254,7.0,18.0,86,0.00,,,0.00,,2013-02-27 08:32:00,
2013-02-27 02:42:00,38.0,34.0,29.66,WSW,254,7.0,18.0,86,0.00,,,0.00,,2013-02-27 08:42:00,
2013-02-27 02:52:00,38.0,34.0,29.67,West,270,5.0,18.0,85,0.00,,,0.00,,2013-02-27 08:52:00,
2013-02-27 03:02:00,38.0,34.0,29.66,West,268,4.0,20.0,86,0.00,,,0.00,,2013-02-27 09:02:00,
2013-02-27 03:12:00,38.0,34.0,29.66,West,268,4.0,20.0,86,0.00,,,0.00,,2013-02-27 09:12:00,
2013-02-27 03:21:00,38.0,34.0,29.65,SW,224,2.0,20.0,86,0.00,,,0.00,,2013-02-27 09:21:00,
2013-02-27 03:32:00,38.0,34.0,29.65,West,261,12.0,14.0,85,0.00,,,0.00,,2013-02-27 09:32:00,
2013-02-27 03:41:00,38.0,34.0,29.65,West,261,12.0,14.0,85,0.00,,,0.00,,2013-02-27 09:41:00,
2013-02-27 03:51:00,37.0,33.0,29.66,WSW,257,2.0,14.0,85,0.00,,,0.00,,2013-02-27 09:51:00,
2013-02-27 04:01:00,37.0,32.0,29.66,West,278,2.0,17.0,82,0.00,,,0.00,,2013-02-27 10:01:00,
2013-02-27 04:12:00,37.0,32.0,29.66,West,278,2.0,17.0,82,0.00,,,0.00,,2013-02-27 10:12:00,
2013-02-27 04:21:00,37.0,33.0,29.65,NW,308,2.0,17.0,84,0.00,,,0.00,,2013-02-27 10:21:00,
2013-02-27 04:32:00,37.0,33.0,29.67,West,267,11.0,12.0,84,0.00,,,0.00,,2013-02-27 10:32:00,
2013-02-27 04:42:00,37.0,33.0,29.67,West,267,11.0,12.0,84,0.00,,,0.00,,2013-02-27 10:42:00,
2013-02-27 04:52:00,37.0,33.0,29.69,WSW,254,11.0,12.0,85,0.00,,,0.00,,2013-02-27 10:52:00,
2013-02-27 05:02:00,37.0,33.0,29.69,WSW,251,7.0,17.0,84,0.00,,,0.00,,2013-02-27 11:02:00,
2013-02-27 05:12:00,37.0,33.0,29.69,WSW,251,7.0,17.0,84,0.00,,,0.00,,2013-02-27 11:12:00,
2013-02-27 05:22:00,37.0,33.0,29.70,WSW,243,5.0,17.0,86,0.00,,,0.00,,2013-02-27 11:22:00,
2013-02-27 05:32:00,37.0,33.0,29.70,West,263,11.0,18.0,86,0.00,,,0.00,,2013-02-27 11:32:00,
2013-02-27 05:42:00,37.0,33.0,29.70,West,263,11.0,18.0,86,0.00,,,0.00,,2013-02-27 11:42:00,
2013-02-27 05:52:00,37.0,33.0,29.70,NW,311,5.0,18.0,86,0.00,,,0.00,,2013-02-27 11:52:00,
2013-02-27 06:02:00,37.0,33.0,29.70,West,261,5.0,17.0,85,0.00,,,0.00,,2013-02-27 12:02:00,
2013-02-27 06:13:00,37.0,33.0,29.70,West,261,5.0,17.0,85,0.00,,,0.00,,2013-02-27 12:13:00,
2013-02-27 06:22:00,37.0,32.0,29.70,WSW,258,12.0,17.0,83,0.00,,,0.00,,2013-02-27 12:22:00,
2013-02-27 06:33:00,37.0,33.0,29.71,WNW,284,1.0,16.0,84,0.00,,,0.00,,2013-02-27 12:33:00,
2013-02-27 06:42:00,37.0,33.0,29.71,WNW,284,1.0,16.0,84,0.00,,,0.00,,2013-02-27 12:42:00,
2013-02-27 06:52:00,37.0,32.0,29.72,WSW,256,7.0,16.0,82,0.00,,,0.00,,2013-02-27 12:52:00,
2013-02-27 07:02:00,37.0,32.0,29.72,WSW,250,3.0,14.0,83,0.00,,,0.00,,2013-02-27 13:02:00,
2013-02-27 07:11:00,37.0,32.0,29.72,WSW,250,3.0,14.0,83,0.00,,,0.00,,2013-02-27 13:11:00,
2013-02-27 07:22:00,37.0,32.0,29.73,West,265,5.0,14.0,83,0.00,,,0.00,,2013-02-27 13:22:00,
2013-02-27 07:32:00,37.0,33.0,29.73,West,261,5.0,19.0,86,0.00,,,0.00,,2013-02-27 13:32:00,
2013-02-27 07:42:00,37.0,33.0,29.73,West,261,5.0,19.0,86,0.00,,,0.00,,2013-02-27 13:42:00,
2013-02-27 07:52:00,37.0,33.0,29.74,SSW,196,6.0,19.0,84,0.00,,,0.00,,2013-02-27 13:52:00,
2013-02-27 08:02:00,37.0,33.0,29.74,WSW,250,10.0,17.0,84,0.00,,,0.00,,2013-02-27 14:02:00,
2013-02-27 08:12:00,37.0,33.0,29.74,WSW,250,10.0,17.0,84,0.00,,,0.00,,2013-02-27 14:12:00,
2013-02-27 08:21:00,37.0,32.0,29.74,WSW,256,3.0,17.0,83,0.00,,,0.00,,2013-02-27 14:21:00,
2013-02-27 08:32:00,37.0,31.0,29.75,West,264,5.0,16.0,80,0.00,,,0.00,,2013-02-27 14:32:00,
2013-02-27 08:42:00,37.0,31.0,29.75,West,264,5.0,16.0,80,0.00,,,0.00,,2013-02-27 14:42:00,
2013-02-27 08:52:00,37.0,31.0,29.75,West,264,5.0,16.0,80,0.00,,,0.00,,2013-02-27 14:52:00,
2013-02-27 09:02:00,37.0,31.0,29.75,West,260,3.0,14.0,78,0.00,,,0.00,,2013-02-27 15:02:00,
2013-02-27 09:12:00,37.0,31.0,29.75,West,260,3.0,14.0,78,0.00,,,0.00,,2013-02-27 15:12:00,
2013-02-27 09:22:00,37.0,31.0,29.76,WSW,253,6.0,14.0,79,0.00,,,0.00,,2013-02-27 15:22:00,
2013-02-27 09:32:00,37.0,31.0,29.77,NW,309,5.0,16.0,78,0.00,,,0.00,,2013-02-27 15:32:00,
2013-02-27 09:42:00,37.0,31.0,29.77,NW,309,5.0,16.0,78,0.00,,,0.00,,2013-02-27 15:42:00,
2013-02-27 09:52:00,37.0,31.0,29.77,West,260,10.0,16.0,79,0.00,,,0.00,,2013-02-27 15:52:00,
2013-02-27 10:02:00,37.0,30.0,29.77,West,275,5.0,17.0,77,0.00,,,0.00,,2013-02-27 16:02:00,
2013-02-27 10:12:00,37.0,30.0,29.77,West,275,5.0,17.0,77,0.00,,,0.00,,2013-02-27 16:12:00,
2013-02-27 10:22:00,37.0,30.0,29.77,WNW,288,6.0,17.0,77,0.00,,,0.00,,2013-02-27 16:22:00,
2013-02-27 10:32:00,37.0,31.0,29.77,West,271,6.0,19.0,79,0.00,,,0.00,,2013-02-27 16:32:00,
2013-02-27 10:42:00,37.0,31.0,29.77,West,271,6.0,19.0,79,0.00,,,0.00,,2013-02-27 16:42:00,
2013-02-27 10:52:00,37.0,31.0,29.77,West,274,7.0,19.0,78,0.00,,,0.00,,2013-02-27 16:52:00,
2013-02-27 11:02:00,37.0,31.0,29.77,SW,223,8.0,16.0,78,0.00,,,0.00,,2013-02-27 17:02:00,
2013-02-27 11:11:00,37.0,31.0,29.77,SW,223,8.0,16.0,78,0.00,,,0.00,,2013-02-27 17:11:00,
2013-02-27 11:21:00,37.0,31.0,29.77,West,278,12.0,16.0,79,0.00,,,0.00,,2013-02-27 17:21:00,
2013-02-27 11:32:00,37.0,30.0,29.77,West,274,2.0,20.0,77,0.00,,,0.00,,2013-02-27 17:32:00,
2013-02-27 11:42:00,37.0,30.0,29.77,West,274,2.0,20.0,77,0.00,,,0.00,,2013-02-27 17:42:00,
2013-02-27 11:52:00,38.0,30.0,29.77,West,272,10.0,20.0,72,0.00,,,0.00,,2013-02-27 17:52:00,
2013-02-27 12:01:00,38.0,30.0,29.77,West,272,10.0,20.0,72,0.00,,,0.00,,2013-02-27 18:01:00,
2013-02-27 12:11:00,38.0,30.0,29.77,West,272,10.0,20.0,72,0.00,,,0.00,,2013-02-27 18:11:00,
2013-02-27 12:22:00,38.0,30.0,29.77,SW,230,9.0,19.0,72,0.00,,,0.00,,2013-02-27 18:22:00,
2013-02-27 12:32:00,38.0,31.0,29.77,West,272,7.0,18.0,76,0.00,,,0.00,,2013-02-27 18:32:00,
2013-02-27 12:42:00,38.0,31.0,29.77,West,272,7.0,18.0,76,0.00,,,0.00,,2013-02-27 18:42:00,
2013-02-27 12:51:00,38.0,31.0,29.77,West,261,7.0,18.0,75,0.00,,,0.00,,2013-02-27 18:51:00,
2013-02-27 13:01:00,38.0,31.0,29.77,West,268,7.0,21.0,76,0.00,,,0.00,,2013-02-27 19:01:00,
2013-02-27 13:12:00,38.0,31.0,29.77,West,268,7.0,21.0,76,0.00,,,0.00,,2013-02-27 19:12:00,
2013-02-27 13:21:00,38.0,30.0,29.77,West,265,2.0,21.0,72,0.00,,,0.00,,2013-02-27 19:21:00,
2013-02-27 13:32:00,38.0,29.0,29.76,WSW,254,7.0,17.0,71,0.00,,,0.00,,2013-02-27 19:32:00,
2013-02-27 13:42:00,38.0,29.0,29.76,WSW,254,7.0,17.0,71,0.00,,,0.00,,2013-02-27 19:42:00,
2013-02-27 13:52:00,38.0,30.0,29.76,WNW,291,7.0,17.0,73,0.00,,,0.00,,2013-02-27 19:52:00,
2013-02-27 14:01:00,38.0,30.0,29.76,WNW,291,7.0,17.0,73,0.00,,,0.00,,2013-02-27 20:01:00,
2013-02-27 14:12:00,38.0,30.0,29.76,WNW,291,7.0,17.0,73,0.00,,,0.00,,2013-02-27 20:12:00,
2013-02-27 14:21:00,37.0,31.0,29.77,WSW,251,11.0,18.0,80,0.00,,,0.00,,2013-02-27 20:21:00,
2013-02-27 14:32:00,38.0,33.0,29.76,WSW,254,7.0,20.0,81,0.00,,,0.00,,2013-02-27 20:32:00,
2013-02-27 14:42:00,38.0,33.0,29.76,WSW,254,7.0,20.0,81,0.00,,,0.00,,2013-02-27 20:42:00,
2013-02-27 14:52:00,37.0,32.0,29.77,West,263,18.0,20.0,83,0.00,,,0.00,,2013-02-27 20:52:00,
2013-02-27 15:02:00,37.0,34.0,29.77,West,274,7.0,20.0,87,0.00,,,0.00,,2013-02-27 21:02:00,
2013-02-27 15:11:00,37.0,34.0,29.77,West,274,7.0,20.0,87,0.00,,,0.00,,2013-02-27 21:11:00,
2013-02-27 15:21:00,37.0,34.0,29.77,SW,216,7.0,20.0,89,0.00,,,0.00,,2013-02-27 21:21:00,
2013-02-27 15:32:00,36.0,33.0,29.77,WSW,258,5.0,19.0,89,0.00,,,0.00,,2013-02-27 21:32:00,
2013-02-27 15:42:00,36.0,33.0,29.77,WSW,258,5.0,19.0,89,0.00,,,0.00,,2013-02-27 21:42:00,
2013-02-27 15:51:00,37.0,34.0,29.77,SW,232,6.0,19.0,90,0.00,,,0.00,,2013-02-27 21:51:00,
2013-02-27 16:01:00,37.0,34.0,29.77,WSW,250,5.0,18.0,88,0.00,,,0.00,,2013-02-27 22:01:00,
2013-02-27 16:11:00,37.0,34.0,29.77,WSW,250,5.0,18.0,88,0.00,,,0.00,,2013-02-27 22:11:00,
2013-02-27 16:21:00,37.0,33.0,29.77,West,268,7.0,18.0,86,0.00,,,0.00,,2013-02-27 22:21:00,
2013-02-27 16:31:00,38.0,34.0,29.77,WNW,287,10.0,17.0,84,0.00,,,0.00,,2013-02-27 22:31:00,
2013-02-27 16:42:00,38.0,34.0,29.77,WNW,287,10.0,17.0,84,0.00,,,0.00,,2013-02-27 22:42:00,
2013-02-27 16:51:00,38.0,32.0,29.78,NW,315,5.0,17.0,80,0.00,,,0.00,,2013-02-27 22:51:00,
2013-02-27 17:01:00,38.0,32.0,29.78,WNW,299,8.0,25.0,79,0.00,,,0.00,,2013-02-27 23:01:00,
2013-02-27 17:11:00,38.0,32.0,29.78,WNW,299,8.0,25.0,79,0.00,,,0.00,,2013-02-27 23:11:00,
2013-02-27 17:21:00,38.0,31.0,29.78,West,270,7.0,25.0,76,0.00,,,0.00,,2013-02-27 23:21:00,
2013-02-27 17:32:00,38.0,31.0,29.79,West,264,7.0,21.0,76,0.00,,,0.00,,2013-02-27 23:32:00,
2013-02-27 17:42:00,38.0,31.0,29.79,West,264,7.0,21.0,76,0.00,,,0.00,,2013-02-27 23:42:00,
2013-02-27 17:52:00,37.0,29.0,29.79,WNW,295,5.0,21.0,74,0.00,,,0.00,,2013-02-27 23:52:00,
2013-02-27 18:02:00,37.0,29.0,29.79,WNW,295,5.0,21.0,74,0.00,,,0.00,,2013-02-28 00:02:00,
2013-02-27 18:12:00,37.0,29.0,29.79,WNW,295,5.0,21.0,74,0.00,,,0.00,,2013-02-28 00:12:00,
2013-02-27 18:21:00,37.0,30.0,29.80,WNW,284,7.0,19.0,75,0.00,,,0.00,,2013-02-28 00:21:00,
2013-02-27 18:32:00,37.0,30.0,29.80,WNW,291,6.0,18.0,77,0.00,,,0.00,,2013-02-28 00:32:00,
2013-02-27 18:42:00,37.0,30.0,29.80,WNW,291,6.0,18.0,77,0.00,,,0.00,,2013-02-28 00:42:00,
2013-02-27 18:51:00,37.0,31.0,29.80,WNW,295,4.0,18.0,78,0.00,,,0.00,,2013-02-28 00:51:00,
2013-02-27 19:01:00,37.0,30.0,29.81,WSW,256,5.0,16.0,76,0.00,,,0.00,,2013-02-28 01:01:00,
2013-02-27 19:11:00,37.0,30.0,29.81,WSW,256,5.0,16.0,76,0.00,,,0.00,,2013-02-28 01:11:00,
2013-02-27 19:21:00,37.0,30.0,29.82,WSW,253,10.0,16.0,76,0.00,,,0.00,,2013-02-28 01:21:00,
2013-02-27 19:32:00,37.0,30.0,29.82,WNW,288,4.0,17.0,77,0.00,,,0.00,,2013-02-28 01:32:00,
2013-02-27 19:42:00,37.0,30.0,29.82,WNW,288,4.0,17.0,77,0.00,,,0.00,,2013-02-28 01:42:00,
2013-02-27 19:52:00,37.0,31.0,29.82,West,264,2.0,17.0,78,0.00,,,0.00,,2013-02-28 01:52:00,
2013-02-27 20:01:00,37.0,31.0,29.81,SW,226,2.0,17.0,79,0.00,,,0.00,,2013-02-28 02:01:00,
2013-02-27 20:11:00,37.0,31.0,29.81,SW,226,2.0,17.0,79,0.00,,,0.00,,2013-02-28 02:11:00,
2013-02-27 20:22:00,37.0,30.0,29.81,WSW,251,2.0,17.0,77,0.00,,,0.00,,2013-02-28 02:22:00,
2013-02-27 20:31:00,37.0,31.0,29.82,WNW,294,11.0,19.0,78,0.00,,,0.00,,2013-02-28 02:31:00,
2013-02-27 20:41:00,37.0,31.0,29.82,WNW,294,11.0,19.0,78,0.00,,,0.00,,2013-02-28 02:41:00,
2013-02-27 20:51:00,37.0,31.0,29.82,WNW,294,11.0,19.0,78,0.00,,,0.00,,2013-02-28 02:51:00,
2013-02-27 21:01:00,37.0,31.0,29.82,NW,316,5.0,16.0,79,0.00,,,0.00,,2013-02-28 03:01:00,
2013-02-27 21:11:00,37.0,31.0,29.82,NW,316,5.0,16.0,79,0.00,,,0.00,,2013-02-28 03:11:00,
2013-02-27 21:21:00,37.0,31.0,29.82,WNW,291,1.0,16.0,80,0.00,,,0.00,,2013-02-28 03:21:00,
2013-02-27 21:32:00,37.0,31.0,29.83,WNW,299,2.0,14.0,80,0.00,,,0.00,,2013-02-28 03:32:00,
2013-02-27 21:42:00,37.0,31.0,29.83,WNW,299,2.0,14.0,80,0.00,,,0.00,,2013-02-28 03:42:00,
2013-02-27 21:52:00,36.0,31.0,29.83,NW,305,7.0,14.0,82,0.00,,,0.00,,2013-02-28 03:52:00,
2013-02-27 22:01:00,36.0,30.0,29.83,NW,304,2.0,13.0,80,0.00,,,0.00,,2013-02-28 04:01:00,
2013-02-27 22:11:00,36.0,30.0,29.83,NW,304,2.0,13.0,80,0.00,,,0.00,,2013-02-28 04:11:00,
2013-02-27 22:21:00,36.0,30.0,29.83,WNW,284,11.0,13.0,80,0.00,,,0.00,,2013-02-28 04:21:00,
2013-02-27 22:32:00,36.0,31.0,29.83,NW,312,9.0,18.0,83,0.00,,,0.00,,2013-02-28 04:32:00,
2013-02-27 22:42:00,36.0,31.0,29.83,NW,312,9.0,18.0,83,0.00,,,0.00,,2013-02-28 04:42:00,
2013-02-27 22:52:00,36.0,31.0,29.83,NW,312,9.0,18.0,83,0.00,,,0.00,,2013-02-28 04:52:00,
2013-02-27 23:01:00,35.0,31.0,29.83,West,277,5.0,14.0,86,0.00,,,0.00,,2013-02-28 05:01:00,
2013-02-27 23:11:00,35.0,31.0,29.83,West,277,5.0,14.0,86,0.00,,,0.00,,2013-02-28 05:11:00,
2013-02-27 23:22:00,35.0,32.0,29.82,WNW,295,2.0,14.0,87,0.00,,,0.00,,2013-02-28 05:22:00,
2013-02-27 23:31:00,35.0,32.0,29.82,NW,309,3.0,13.0,90,0.00,,,0.00,,2013-02-28 05:31:00,
2013-02-27 23:42:00,35.0,32.0,29.82,NW,309,3.0,13.0,90,0.00,,,0.00,,2013-02-28 05:42:00,
2013-02-27 23:52:00,35.0,32.0,29.82,WNW,302,5.0,13.0,90,0.00,,,0.00,,2013-02-28 05:52:00,